[[{"header":{"parameterUnit":"m.s-1","parameterCategory":1,"la1":30.2991,"la2":30.254,"lo1":-89.0895,"lo2":-89.0444,"dy":0.0017,"dx":0.0017,"nx":28,"ny":28,"refTime":"2025-08-14T21:00:00:Z","depth":0,"parameterNumber":2,"parameterNumberName":"U-component_of_WINDS"},"data":[0,0,0,0,0,0,0,0,0,0,0,0,0,0,0,0,0,0,0,0,0,0,0,0,0,0,0,0,0,0,0,0,0,0,0,0,0,0,0,0,0,0,0,0,0,0,0,0,0,0,0,0,0,0,0,0,0,0,1.5718,1.5719,0,1.5777,1.5778,1.5779,1.5786,1.5786,1.5785,1.5785,1.5847,1.5849,1.5851,0,0,0,0,0,0,0,0,0,0,0,0,0,1.5615,1.5617,1.5718,1.5719,1.572,1.5777,1.5778,1.5779,1.5787,1.5786,1.5785,1.5785,1.5846,1.5849,1.5851,0,0,0,0,0,0,0,0,0,0,0,0,0,1.5666,1.5617,1.5718,1.5731,1.5732,1.5777,1.5778,1.5779,1.5787,1.5786,1.5785,1.5784,1.5845,1.5848,1.5852,1.5889,0,0,1.5862,1.5863,0,0,0,0,0,0,0,0,1.5663,1.5669,1.5728,1.573,1.5732,1.5774,1.5764,1.5816,1.5787,1.5766,1.5785,1.5784,1.5823,1.5828,1.5841,1.5892,1.5894,1.5862,1.5864,1.5865,1.5866,0,0,0,0,0,0,0,1.5659,1.5667,1.5742,1.5729,1.5731,1.5734,1.574,1.5774,1.5799,1.5768,1.5769,1.5775,1.5824,1.5838,1.5843,1.5895,1.5862,1.5865,1.5867,1.5868,1.5981,1.5982,0,0,0,0,0,0,1.5653,1.5664,1.574,1.5743,1.5694,1.5737,1.5744,1.5761,1.5798,1.5803,1.5776,1.5775,1.5833,1.5839,1.5845,1.5892,1.5865,1.5868,1.587,1.598,1.5981,1.5982,0,0,0,0,0,0,1.5651,1.566,1.5737,1.5704,1.5714,1.5739,1.5759,1.5763,1.5777,1.5805,1.5809,1.5786,1.5833,1.584,1.5878,1.5894,1.587,1.5873,1.5979,1.598,1.5982,1.5986,0,0,0,0,0,0,1.5648,1.5659,1.5673,1.5704,1.5716,1.5769,1.576,1.5764,1.5782,1.5782,1.5815,1.5819,1.5832,1.5873,1.5881,1.5898,1.5875,1.5977,1.5979,1.5981,1.5984,1.5987,1.599,0,0,0,0,0,1.5644,1.5671,1.5673,1.5682,1.5733,1.577,1.5776,1.579,1.5783,1.5798,1.5816,1.5818,1.5891,1.5877,1.5886,1.5904,1.5976,1.5979,1.5981,1.5983,1.5986,1.599,0,0,0,0,0,0,1.5641,1.5676,1.5678,1.5716,1.574,1.5771,1.5789,1.5793,1.582,1.5819,1.5836,1.5843,1.588,1.5896,1.588,1.5943,1.5933,1.5938,1.5931,1.5935,1.5938,1.5933,1.5878,0,0,0,0,0,1.5645,1.5671,1.57,1.5731,1.5742,1.5764,1.578,1.5789,1.5815,1.5825,1.5846,1.5871,1.59,1.5918,1.5946,1.5987,1.5995,1.6004,1.6006,1.6009,1.6012,1.6036,1.6041,1.599,1.599,1.599,0,0,1.5653,1.5675,1.569,1.5731,1.575,1.5778,1.5772,1.5801,1.5822,1.5829,1.5866,1.5883,1.5912,1.5952,1.597,1.5966,1.6028,1.6012,1.6013,1.6016,1.6039,1.6044,1.6048,1.5992,1.5991,1.5991,0,0,1.5682,1.57,1.5729,1.5748,1.5778,1.5792,1.5799,1.583,1.5841,1.5878,1.5885,1.5911,1.5959,1.598,1.5997,1.6036,1.604,1.6045,1.6059,1.6082,1.6086,1.609,1.6104,1.6109,1.6048,1.6048,1.6048,0,1.5688,1.5729,1.5743,1.5772,1.579,1.5798,1.5828,1.5846,1.5884,1.5896,1.5891,1.5953,1.5974,1.6019,1.6028,1.6042,1.6051,1.6041,1.6084,1.6088,1.6092,1.6106,1.6111,1.6049,1.6048,1.6048,1.6048,0,1.5736,1.5764,1.5784,1.582,1.584,1.5869,1.5889,1.5908,1.5915,1.5931,1.5969,1.5994,1.6028,1.6039,1.6047,1.6086,1.6083,1.6081,1.6071,1.6097,1.6111,1.6116,1.6049,1.6049,1.6049,1.6049,0,0,1.5764,1.5808,1.5815,1.5832,1.5865,1.5888,1.5918,1.5951,1.5968,1.5994,1.602,1.6062,1.6061,1.608,1.609,1.611,1.6141,1.6106,1.6107,1.6112,1.6187,1.6189,1.6195,1.6143,1.6144,1.6145,1.6185,0,1.5797,1.585,1.5865,1.591,1.5938,1.5946,1.5973,1.5997,1.6012,1.6038,1.6056,1.6085,1.6081,1.6093,1.6113,1.6133,1.6156,1.613,1.6169,1.617,1.6162,1.6202,1.6204,1.624,1.619,1.6191,1.6192,0,1.5843,1.587,1.5918,1.595,1.5962,1.5985,1.6017,1.6041,1.607,1.608,1.6102,1.611,1.6144,1.6132,1.6179,1.6161,1.6178,1.619,1.6192,1.6196,1.6183,1.6208,1.6251,1.6257,1.62,1.62,1.6199,0,1.5859,1.5908,1.5943,1.5957,1.5995,1.6011,1.6028,1.6055,1.6074,1.6103,1.6115,1.6147,1.6165,1.6189,1.6207,1.6197,1.6253,1.6242,1.6263,1.6262,1.6274,1.6273,1.6321,1.6284,1.6284,1.6284,1.6284,0,1.5895,1.5925,1.5951,1.5973,1.6007,1.6024,1.6057,1.6074,1.6099,1.6125,1.6134,1.6159,1.618,1.6208,1.6222,1.6259,1.6266,1.6276,1.628,1.6276,1.6275,1.6287,1.6285,1.6285,1.6285,1.6285,1.6285,0,1.592,1.5938,1.5978,1.601,1.6019,1.6043,1.6071,1.6093,1.6109,1.6143,1.6151,1.6177,1.621,1.623,1.6272,1.6282,1.6323,1.6325,1.6313,1.6315,1.6334,1.6333,1.6393,1.6402,1.6358,1.6359,1.6359,0,1.5942,1.5965,1.6,1.6018,1.6034,1.6063,1.6083,1.6101,1.6121,1.6156,1.6174,1.6208,1.6236,1.6289,1.6312,1.6345,1.6348,1.6367,1.6353,1.6349,1.6349,1.6348,1.6351,1.6369,1.637,1.637,1.637,0,1.5979,1.5988,1.6015,1.6047,1.607,1.6096,1.6121,1.6136,1.6158,1.6181,1.6215,1.6237,1.628,1.6314,1.6349,1.6367,1.6373,1.6375,1.6381,1.6378,1.637,1.6375,1.632,1.6373,1.6373,1.6373,1.6372,1.6372,1.6004,1.6025,1.6053,1.6084,1.6105,1.6129,1.6152,1.6171,1.62,1.6236,1.6245,1.6281,1.631,1.6358,1.6377,1.6406,1.6403,1.6412,1.6415,1.6417,1.6418,1.6365,1.6412,1.6412,1.6412,1.6412,1.6412,0,1.6042,1.6061,1.6089,1.6125,1.615,1.6153,1.6182,1.6203,1.6234,1.626,1.6288,1.6328,1.6361,1.6387,1.6421,1.644,1.6444,1.6448,1.6447,1.6452,1.6418,1.6409,1.6445,1.6445,1.6445,1.6445,1.6445,1.6445,1.6065,1.6102,1.6114,1.6162,1.618,1.6215,1.6232,1.6255,1.6276,1.632,1.6347,1.6364,1.639,1.6427,1.6458,1.6465,1.6478,1.6482,1.6489,1.6458,1.6454,1.6451,1.6442,1.6484,1.6484,1.6521,1.6521,1.6521]},{"header":{"parameterUnit":"m.s-1","parameterCategory":1,"la1":30.2991,"la2":30.254,"lo1":-89.0895,"lo2":-89.0444,"dy":0.0017,"dx":0.0017,"nx":28,"ny":28,"refTime":"2025-08-14T21:00:00:Z","depth":0,"parameterNumber":3,"parameterNumberName":"V-component_of_WINDS"},"data":[0,0,0,0,0,0,0,0,0,0,0,0,0,0,0,0,0,0,0,0,0,0,0,0,0,0,0,0,0,0,0,0,0,0,0,0,0,0,0,0,0,0,0,0,0,0,0,0,0,0,0,0,0,0,0,0,0,0,-1.1506,-1.1506,0,-1.1495,-1.1494,-1.1494,-1.151,-1.151,-1.1511,-1.1512,-1.1497,-1.1496,-1.1495,0,0,0,0,0,0,0,0,0,0,0,0,0,-1.1539,-1.1539,-1.1506,-1.1506,-1.1505,-1.1495,-1.1494,-1.1494,-1.151,-1.151,-1.1511,-1.1512,-1.1497,-1.1496,-1.1495,0,0,0,0,0,0,0,0,0,0,0,0,0,-1.1526,-1.1539,-1.1506,-1.1512,-1.1512,-1.1495,-1.1494,-1.1494,-1.151,-1.151,-1.1511,-1.1512,-1.1498,-1.1496,-1.1495,-1.147,0,0,-1.1491,-1.149,0,0,0,0,0,0,0,0,-1.1527,-1.1525,-1.1511,-1.1512,-1.1512,-1.1505,-1.1501,-1.1486,-1.1509,-1.1511,-1.1512,-1.1513,-1.1499,-1.1497,-1.1493,-1.1469,-1.1468,-1.1491,-1.149,-1.1489,-1.1489,0,0,0,0,0,0,0,-1.1528,-1.1525,-1.1501,-1.1511,-1.1511,-1.1515,-1.1514,-1.1498,-1.15,-1.1511,-1.1512,-1.151,-1.1499,-1.1494,-1.1493,-1.1468,-1.1491,-1.149,-1.1489,-1.1488,-1.1425,-1.1424,0,0,0,0,0,0,-1.1528,-1.1526,-1.1502,-1.1501,-1.1522,-1.1514,-1.1513,-1.1506,-1.15,-1.15,-1.151,-1.1511,-1.1496,-1.1495,-1.1492,-1.1464,-1.1489,-1.1488,-1.1487,-1.1426,-1.1425,-1.1424,0,0,0,0,0,0,-1.1529,-1.1526,-1.1502,-1.1514,-1.1511,-1.1512,-1.1505,-1.1505,-1.1501,-1.1499,-1.15,-1.1505,-1.1497,-1.1494,-1.1476,-1.1464,-1.1487,-1.1486,-1.1427,-1.1426,-1.1425,-1.1407,0,0,0,0,0,0,-1.153,-1.1526,-1.1516,-1.1514,-1.151,-1.1486,-1.1504,-1.1505,-1.1499,-1.1501,-1.1495,-1.1495,-1.1497,-1.1478,-1.1475,-1.1463,-1.1485,-1.1428,-1.1426,-1.1425,-1.1408,-1.1405,-1.1402,0,0,0,0,0,-1.1531,-1.151,-1.1516,-1.1513,-1.1499,-1.1485,-1.1483,-1.1488,-1.1498,-1.1488,-1.1488,-1.1495,-1.1466,-1.1476,-1.1472,-1.146,-1.1429,-1.1427,-1.1425,-1.141,-1.1405,-1.1402,0,0,0,0,0,0,-1.151,-1.151,-1.1516,-1.1494,-1.149,-1.1488,-1.1476,-1.1483,-1.1474,-1.1476,-1.1481,-1.148,-1.1461,-1.1458,-1.1469,-1.1436,-1.1449,-1.1446,-1.1438,-1.1435,-1.1431,-1.1433,-1.1484,0,0,0,0,0,-1.1503,-1.1493,-1.1493,-1.1474,-1.1472,-1.1474,-1.1468,-1.1473,-1.1468,-1.1466,-1.1464,-1.1458,-1.1448,-1.1441,-1.1431,-1.1408,-1.1408,-1.1398,-1.1394,-1.1392,-1.1389,-1.1379,-1.1375,-1.1418,-1.1418,-1.1418,0,0,-1.1488,-1.1487,-1.148,-1.147,-1.1467,-1.1456,-1.1472,-1.146,-1.1452,-1.1463,-1.1447,-1.1445,-1.1439,-1.1419,-1.141,-1.1416,-1.1378,-1.1389,-1.1387,-1.1386,-1.1377,-1.1373,-1.1369,-1.1417,-1.1417,-1.1417,0,0,-1.1456,-1.1454,-1.1439,-1.1436,-1.1433,-1.1435,-1.1431,-1.1429,-1.1429,-1.1413,-1.1422,-1.1412,-1.1394,-1.139,-1.1386,-1.1356,-1.1363,-1.1352,-1.1336,-1.1326,-1.1322,-1.1319,-1.131,-1.1306,-1.135,-1.135,-1.135,0,-1.1438,-1.1423,-1.143,-1.1418,-1.1414,-1.1425,-1.141,-1.1407,-1.14,-1.1397,-1.1404,-1.1384,-1.138,-1.1361,-1.1354,-1.1349,-1.1346,-1.1353,-1.1322,-1.1319,-1.1317,-1.1308,-1.1304,-1.1349,-1.1349,-1.1349,-1.1349,0,-1.1402,-1.1391,-1.138,-1.1375,-1.1369,-1.1355,-1.136,-1.1354,-1.1359,-1.136,-1.1345,-1.1342,-1.1333,-1.1328,-1.1332,-1.1309,-1.1314,-1.1322,-1.1335,-1.1312,-1.1304,-1.13,-1.1347,-1.1348,-1.1348,-1.1348,0,0,-1.1355,-1.1356,-1.1352,-1.1351,-1.1348,-1.134,-1.1328,-1.1321,-1.1316,-1.1311,-1.1301,-1.1287,-1.1295,-1.129,-1.1294,-1.1285,-1.1264,-1.1294,-1.1294,-1.129,-1.1241,-1.1235,-1.1231,-1.1268,-1.1268,-1.1267,-1.1242,0,-1.1324,-1.1304,-1.1311,-1.129,-1.1282,-1.1294,-1.1283,-1.1281,-1.1282,-1.1275,-1.1276,-1.1267,-1.1278,-1.1275,-1.1267,-1.1268,-1.1254,-1.127,-1.126,-1.1259,-1.1262,-1.1227,-1.1221,-1.1197,-1.1238,-1.1238,-1.1237,0,-1.1285,-1.1282,-1.1261,-1.1263,-1.1259,-1.1249,-1.1245,-1.1238,-1.1236,-1.1238,-1.1234,-1.124,-1.1228,-1.1242,-1.1226,-1.1237,-1.1233,-1.1233,-1.1233,-1.1232,-1.1247,-1.1227,-1.1189,-1.1186,-1.1232,-1.1232,-1.1233,0,-1.1256,-1.1245,-1.1231,-1.123,-1.1231,-1.1225,-1.1225,-1.1224,-1.122,-1.1215,-1.1213,-1.1207,-1.1204,-1.1199,-1.1204,-1.1213,-1.1188,-1.1201,-1.119,-1.119,-1.1184,-1.1184,-1.1146,-1.118,-1.118,-1.118,-1.118,0,-1.1221,-1.1208,-1.1218,-1.121,-1.1197,-1.1205,-1.1191,-1.1192,-1.1192,-1.1184,-1.1194,-1.1186,-1.1193,-1.1186,-1.119,-1.1177,-1.1175,-1.1177,-1.1178,-1.1177,-1.1177,-1.1175,-1.1177,-1.1179,-1.118,-1.118,-1.118,0,-1.1185,-1.1191,-1.1178,-1.1181,-1.1182,-1.1172,-1.1175,-1.1167,-1.1171,-1.1161,-1.116,-1.1164,-1.1157,-1.1162,-1.1154,-1.1157,-1.1141,-1.1144,-1.1142,-1.1143,-1.1132,-1.1134,-1.1092,-1.1088,-1.1123,-1.1123,-1.1123,0,-1.1163,-1.1154,-1.1157,-1.1154,-1.1154,-1.1147,-1.1145,-1.1153,-1.1149,-1.1148,-1.1141,-1.1135,-1.1131,-1.1119,-1.1121,-1.1116,-1.112,-1.1106,-1.1119,-1.1118,-1.1121,-1.1122,-1.1122,-1.1103,-1.1103,-1.1102,-1.1102,0,-1.1124,-1.1128,-1.1124,-1.1122,-1.1118,-1.1116,-1.1115,-1.1111,-1.112,-1.1115,-1.1109,-1.1106,-1.11,-1.1094,-1.109,-1.109,-1.1098,-1.1098,-1.1095,-1.1094,-1.1094,-1.1095,-1.1136,-1.1099,-1.1099,-1.1099,-1.1099,-1.11,-1.1095,-1.1089,-1.1091,-1.1086,-1.1087,-1.1086,-1.108,-1.1084,-1.1079,-1.1076,-1.1081,-1.1074,-1.1074,-1.107,-1.1069,-1.1064,-1.1069,-1.1065,-1.1064,-1.1063,-1.1062,-1.1094,-1.1063,-1.1063,-1.1063,-1.1063,-1.1063,0,-1.1058,-1.1061,-1.1057,-1.1056,-1.1053,-1.1062,-1.1061,-1.1058,-1.1052,-1.1052,-1.1049,-1.1043,-1.1038,-1.1041,-1.1037,-1.1033,-1.1036,-1.1031,-1.1032,-1.1032,-1.1057,-1.106,-1.1029,-1.1029,-1.1029,-1.1029,-1.1029,-1.1029,-1.1038,-1.1028,-1.1033,-1.1024,-1.1026,-1.1021,-1.102,-1.102,-1.102,-1.1014,-1.1011,-1.1013,-1.1015,-1.1012,-1.1008,-1.1009,-1.1008,-1.1002,-1.1004,-1.1027,-1.103,-1.1034,-1.1037,-1.1001,-1.1001,-1.0981,-1.0981,-1.098]}]]